Location: Unspecified
(0.0000°N, 0.0000°E)
Time: 18:52:14
(UTC+00:00)

Courier 1B Rocket - Pass Details

Date: 19 November 2019
Orbit: 920 x 1202 km, 28.2° (Epoch: 05 December)

Event Time Altitude Azimuth Distance (km) Brightness Sun altitude
Rises 08:41:35 0° 217° (SW) 3,554 7.9 41.0°
Reaches altitude 10° 08:44:52 10° 200° (SSW) 2,607 7.4 41.7°
Maximum altitude 08:49:25 21° 153° (SSE) 1,960 7.6 42.7°
Drops below altitude 10° 08:54:00 10° 106° (ESE) 2,648 8.3 43.8°
Sets 08:57:22 0° 90° (E) 3,627 8.6 44.5°
